Time,TemperatureF,DewpointF,PressureIn,WindDirection,WindDirectionDegrees,WindSpeedMPH,WindSpeedGustMPH,Humidity,HourlyPrecipIn,Conditions,Clouds,dailyrainin,SoftwareType,DateUTC
2013-05-19 00:03:00,73.0,69.0,30.06,ENE,73,0.0,0.0,87,0.00,,,0.00,,2013-05-19 04:03:00,
2013-05-19 00:13:00,73.0,69.0,30.06,ENE,73,0.0,0.0,87,0.00,,,0.00,,2013-05-19 04:13:00,
2013-05-19 00:23:00,72.0,68.0,30.07,ENE,73,0.0,0.0,88,0.00,,,0.00,,2013-05-19 04:23:00,
2013-05-19 00:33:00,72.0,68.0,30.06,ENE,73,0.0,0.0,88,0.00,,,0.00,,2013-05-19 04:33:00,
2013-05-19 00:42:00,72.0,68.0,30.06,ENE,73,0.0,0.0,88,0.00,,,0.00,,2013-05-19 04:42:00,
2013-05-19 00:53:00,73.0,69.0,30.06,ENE,73,0.0,0.0,88,0.00,,,0.00,,2013-05-19 04:53:00,
2013-05-19 01:02:00,72.0,69.0,30.06,ENE,73,0.0,0.0,89,0.00,,,0.00,,2013-05-19 05:02:00,
2013-05-19 01:12:00,72.0,69.0,30.06,ENE,73,0.0,0.0,89,0.00,,,0.00,,2013-05-19 05:12:00,
2013-05-19 01:22:00,72.0,69.0,30.05,ENE,73,0.0,0.0,90,0.00,,,0.00,,2013-05-19 05:22:00,
2013-05-19 01:32:00,71.0,68.0,30.05,ENE,73,0.0,0.0,91,0.00,,,0.00,,2013-05-19 05:32:00,
2013-05-19 01:42:00,71.0,69.0,30.04,ENE,73,0.0,0.0,92,0.00,,,0.00,,2013-05-19 05:42:00,
2013-05-19 01:52:00,71.0,69.0,30.04,ENE,73,0.0,0.0,92,0.00,,,0.00,,2013-05-19 05:52:00,
2013-05-19 02:02:00,71.0,69.0,30.04,ENE,73,0.0,0.0,92,0.00,,,0.00,,2013-05-19 06:02:00,
2013-05-19 02:12:00,71.0,69.0,30.04,ENE,73,0.0,0.0,92,0.00,,,0.00,,2013-05-19 06:12:00,
2013-05-19 02:21:00,70.0,68.0,30.03,ENE,73,0.0,0.0,93,0.00,,,0.00,,2013-05-19 06:21:00,
2013-05-19 02:32:00,70.0,68.0,30.03,ENE,73,0.0,0.0,93,0.00,,,0.00,,2013-05-19 06:32:00,
2013-05-19 02:42:00,70.0,68.0,30.03,ENE,73,0.0,0.0,93,0.00,,,0.00,,2013-05-19 06:42:00,
2013-05-19 02:52:00,70.0,68.0,30.03,ENE,73,0.0,0.0,93,0.00,,,0.00,,2013-05-19 06:52:00,
2013-05-19 03:01:00,70.0,68.0,30.03,ENE,73,0.0,0.0,94,0.00,,,0.00,,2013-05-19 07:01:00,
2013-05-19 03:11:00,70.0,68.0,30.03,ENE,73,0.0,0.0,94,0.00,,,0.00,,2013-05-19 07:11:00,
2013-05-19 03:22:00,70.0,68.0,30.02,ENE,73,0.0,0.0,94,0.00,,,0.00,,2013-05-19 07:22:00,
2013-05-19 03:32:00,70.0,68.0,30.01,ENE,73,0.0,0.0,93,0.00,,,0.00,,2013-05-19 07:32:00,
2013-05-19 03:42:00,70.0,68.0,30.01,ENE,73,0.0,0.0,93,0.00,,,0.00,,2013-05-19 07:42:00,
2013-05-19 03:52:00,70.0,68.0,30.01,ENE,73,0.0,0.0,94,0.00,,,0.00,,2013-05-19 07:52:00,
2013-05-19 04:02:00,70.0,68.0,30.02,ENE,73,0.0,0.0,94,0.00,,,0.00,,2013-05-19 08:02:00,
2013-05-19 04:12:00,70.0,68.0,30.02,ENE,73,0.0,0.0,94,0.00,,,0.00,,2013-05-19 08:12:00,
2013-05-19 04:22:00,70.0,68.0,30.01,ENE,73,0.0,0.0,93,0.00,,,0.00,,2013-05-19 08:22:00,
2013-05-19 04:32:00,69.0,67.0,30.01,ENE,73,0.0,0.0,94,0.00,,,0.00,,2013-05-19 08:32:00,
2013-05-19 04:42:00,69.0,67.0,30.01,ENE,73,0.0,0.0,94,0.00,,,0.00,,2013-05-19 08:42:00,
2013-05-19 04:52:00,69.0,67.0,30.01,ENE,73,0.0,0.0,93,0.00,,,0.00,,2013-05-19 08:52:00,
2013-05-19 05:02:00,69.0,67.0,30.01,ENE,73,0.0,0.0,93,0.00,,,0.00,,2013-05-19 09:02:00,
2013-05-19 05:12:00,69.0,67.0,30.01,ENE,73,0.0,0.0,93,0.00,,,0.00,,2013-05-19 09:12:00,
2013-05-19 05:21:00,69.0,67.0,30.01,ENE,73,0.0,0.0,93,0.00,,,0.00,,2013-05-19 09:21:00,
2013-05-19 05:32:00,68.0,66.0,30.01,ENE,73,0.0,0.0,94,0.00,,,0.00,,2013-05-19 09:32:00,
2013-05-19 05:43:00,68.0,66.0,30.01,ENE,73,0.0,0.0,94,0.00,,,0.00,,2013-05-19 09:43:00,
2013-05-19 05:53:00,68.0,67.0,30.02,ENE,73,0.0,0.0,95,0.00,,,0.00,,2013-05-19 09:53:00,
2013-05-19 06:03:00,68.0,67.0,30.02,ENE,73,0.0,0.0,95,0.00,,,0.00,,2013-05-19 10:03:00,
2013-05-19 06:12:00,68.0,67.0,30.02,ENE,73,0.0,0.0,95,0.00,,,0.00,,2013-05-19 10:12:00,
2013-05-19 06:23:00,68.0,67.0,30.02,ENE,59,0.0,0.0,95,0.00,,,0.00,,2013-05-19 10:23:00,
2013-05-19 06:33:00,68.0,67.0,30.02,ENE,59,0.0,0.0,96,0.00,,,0.00,,2013-05-19 10:33:00,
2013-05-19 06:42:00,68.0,67.0,30.02,ENE,59,0.0,0.0,96,0.00,,,0.00,,2013-05-19 10:42:00,
2013-05-19 06:53:00,68.0,67.0,30.03,ENE,59,0.0,0.0,96,0.00,,,0.00,,2013-05-19 10:53:00,
2013-05-19 07:02:00,68.0,67.0,30.04,ENE,59,0.0,0.0,96,0.00,,,0.00,,2013-05-19 11:02:00,
2013-05-19 07:12:00,68.0,67.0,30.04,ENE,59,0.0,0.0,96,0.00,,,0.00,,2013-05-19 11:12:00,
2013-05-19 07:21:00,68.0,67.0,30.04,ENE,59,0.0,0.0,95,0.00,,,0.00,,2013-05-19 11:21:00,
2013-05-19 07:32:00,68.0,67.0,30.05,ENE,59,0.0,0.0,96,0.00,,,0.00,,2013-05-19 11:32:00,
2013-05-19 07:42:00,68.0,67.0,30.05,ENE,59,0.0,0.0,96,0.00,,,0.00,,2013-05-19 11:42:00,
2013-05-19 07:52:00,68.0,67.0,30.05,ENE,59,0.0,0.0,96,0.00,,,0.00,,2013-05-19 11:52:00,
2013-05-19 08:01:00,70.0,69.0,30.05,ENE,59,0.0,0.0,97,0.00,,,0.00,,2013-05-19 12:01:00,
2013-05-19 08:12:00,70.0,69.0,30.05,ENE,59,0.0,0.0,97,0.00,,,0.00,,2013-05-19 12:12:00,
2013-05-19 08:22:00,71.0,70.0,30.06,ENE,60,0.0,0.0,96,0.00,,,0.00,,2013-05-19 12:22:00,
2013-05-19 08:32:00,73.0,71.0,30.07,West,271,0.0,3.0,94,0.00,,,0.00,,2013-05-19 12:32:00,
2013-05-19 08:42:00,73.0,71.0,30.07,West,271,0.0,3.0,94,0.00,,,0.00,,2013-05-19 12:42:00,
2013-05-19 08:52:00,75.0,72.0,30.07,SW,234,0.0,4.0,91,0.00,,,0.00,,2013-05-19 12:52:00,
2013-05-19 09:01:00,76.0,72.0,30.07,West,278,0.0,3.0,86,0.00,,,0.00,,2013-05-19 13:01:00,
2013-05-19 09:11:00,76.0,72.0,30.07,West,278,0.0,3.0,86,0.00,,,0.00,,2013-05-19 13:11:00,
2013-05-19 09:21:00,77.0,70.0,30.08,NW,312,0.0,3.0,80,0.00,,,0.00,,2013-05-19 13:21:00,
2013-05-19 09:32:00,79.0,72.0,30.08,SW,221,2.0,5.0,80,0.00,,,0.00,,2013-05-19 13:32:00,
2013-05-19 09:42:00,79.0,72.0,30.08,SW,221,2.0,5.0,80,0.00,,,0.00,,2013-05-19 13:42:00,
2013-05-19 09:52:00,80.0,71.0,30.08,West,266,1.0,4.0,73,0.00,,,0.00,,2013-05-19 13:52:00,
2013-05-19 10:02:00,82.0,72.0,30.09,West,267,3.0,7.0,72,0.00,,,0.00,,2013-05-19 14:02:00,
2013-05-19 10:11:00,82.0,72.0,30.09,West,267,3.0,7.0,72,0.00,,,0.00,,2013-05-19 14:11:00,
2013-05-19 10:21:00,83.0,72.0,30.08,West,281,4.0,8.0,70,0.00,,,0.00,,2013-05-19 14:21:00,
2013-05-19 10:32:00,83.0,70.0,30.09,WNW,286,1.0,5.0,64,0.00,,,0.00,,2013-05-19 14:32:00,
2013-05-19 10:42:00,83.0,70.0,30.09,WNW,286,1.0,5.0,64,0.00,,,0.00,,2013-05-19 14:42:00,
2013-05-19 10:52:00,83.0,70.0,30.09,WNW,286,1.0,5.0,64,0.00,,,0.00,,2013-05-19 14:52:00,
2013-05-19 11:02:00,85.0,68.0,30.09,SW,225,3.0,6.0,56,0.00,,,0.00,,2013-05-19 15:02:00,
2013-05-19 11:12:00,85.0,68.0,30.09,SW,225,3.0,6.0,56,0.00,,,0.00,,2013-05-19 15:12:00,
2013-05-19 11:22:00,86.0,67.0,30.09,WNW,288,2.0,6.0,54,0.00,,,0.00,,2013-05-19 15:22:00,
2013-05-19 11:33:00,87.0,69.0,30.09,West,276,5.0,8.0,55,0.00,,,0.00,,2013-05-19 15:33:00,
2013-05-19 11:43:00,87.0,69.0,30.09,West,276,5.0,8.0,55,0.00,,,0.00,,2013-05-19 15:43:00,
2013-05-19 11:53:00,88.0,68.0,30.08,SW,217,2.0,8.0,52,0.00,,,0.00,,2013-05-19 15:53:00,
2013-05-19 12:03:00,88.0,72.0,30.08,WNW,295,2.0,7.0,59,0.00,,,0.00,,2013-05-19 16:03:00,
2013-05-19 12:12:00,88.0,72.0,30.08,WNW,295,2.0,7.0,59,0.00,,,0.00,,2013-05-19 16:12:00,
2013-05-19 12:23:00,89.0,71.0,30.08,West,276,4.0,6.0,55,0.00,,,0.00,,2013-05-19 16:23:00,
2013-05-19 12:32:00,88.0,68.0,30.08,WNW,287,4.0,9.0,52,0.00,,,0.00,,2013-05-19 16:32:00,
2013-05-19 12:42:00,88.0,68.0,30.08,WNW,287,4.0,9.0,52,0.00,,,0.00,,2013-05-19 16:42:00,
2013-05-19 12:52:00,86.0,68.0,30.07,WSW,248,3.0,8.0,56,0.00,,,0.00,,2013-05-19 16:52:00,
2013-05-19 13:02:00,87.0,70.0,30.06,NW,308,4.0,9.0,57,0.00,,,0.00,,2013-05-19 17:02:00,
2013-05-19 13:12:00,87.0,70.0,30.06,NW,308,4.0,9.0,57,0.00,,,0.00,,2013-05-19 17:12:00,
2013-05-19 13:22:00,89.0,69.0,30.06,NNW,330,2.0,7.0,52,0.00,,,0.00,,2013-05-19 17:22:00,
2013-05-19 13:32:00,89.0,69.0,30.05,NNW,334,3.0,10.0,52,0.00,,,0.00,,2013-05-19 17:32:00,
2013-05-19 13:42:00,89.0,69.0,30.05,NNW,334,3.0,10.0,52,0.00,,,0.00,,2013-05-19 17:42:00,
2013-05-19 13:52:00,90.0,70.0,30.05,West,261,4.0,8.0,52,0.00,,,0.00,,2013-05-19 17:52:00,
2013-05-19 14:02:00,90.0,72.0,30.04,SW,217,4.0,10.0,55,0.00,,,0.00,,2013-05-19 18:02:00,
2013-05-19 14:12:00,90.0,72.0,30.04,SW,217,4.0,10.0,55,0.00,,,0.00,,2013-05-19 18:12:00,
2013-05-19 14:22:00,90.0,70.0,30.03,West,265,4.0,10.0,52,0.00,,,0.00,,2013-05-19 18:22:00,
2013-05-19 14:32:00,90.0,69.0,30.04,West,268,4.0,10.0,51,0.00,,,0.00,,2013-05-19 18:32:00,
2013-05-19 14:43:00,90.0,69.0,30.04,West,268,4.0,10.0,51,0.00,,,0.00,,2013-05-19 18:43:00,
2013-05-19 14:53:00,90.0,69.0,30.03,West,272,3.0,9.0,50,0.00,,,0.00,,2013-05-19 18:53:00,
2013-05-19 15:01:00,90.0,69.0,30.03,West,274,3.0,10.0,50,0.00,,,0.00,,2013-05-19 19:01:00,
2013-05-19 15:11:00,90.0,69.0,30.03,West,274,3.0,10.0,50,0.00,,,0.00,,2013-05-19 19:11:00,
2013-05-19 15:22:00,88.0,69.0,30.03,NW,313,4.0,11.0,54,0.00,,,0.00,,2013-05-19 19:22:00,
2013-05-19 15:32:00,89.0,71.0,30.02,West,277,5.0,10.0,55,0.00,,,0.00,,2013-05-19 19:32:00,
2013-05-19 15:42:00,89.0,71.0,30.02,West,277,5.0,10.0,55,0.00,,,0.00,,2013-05-19 19:42:00,
2013-05-19 15:52:00,89.0,68.0,30.02,SW,234,4.0,11.0,50,0.00,,,0.00,,2013-05-19 19:52:00,
2013-05-19 16:02:00,88.0,69.0,30.02,NW,312,4.0,9.0,53,0.00,,,0.00,,2013-05-19 20:02:00,
2013-05-19 16:11:00,88.0,69.0,30.02,NW,312,4.0,9.0,53,0.00,,,0.00,,2013-05-19 20:11:00,
2013-05-19 16:22:00,85.0,67.0,30.01,NW,318,2.0,9.0,55,0.00,,,0.00,,2013-05-19 20:22:00,
2013-05-19 16:32:00,86.0,68.0,30.00,West,267,4.0,10.0,55,0.00,,,0.00,,2013-05-19 20:32:00,
2013-05-19 16:42:00,86.0,68.0,30.00,West,267,4.0,10.0,55,0.00,,,0.00,,2013-05-19 20:42:00,
2013-05-19 16:52:00,86.0,67.0,30.00,WNW,282,5.0,10.0,54,0.00,,,0.00,,2013-05-19 20:52:00,
2013-05-19 17:02:00,87.0,68.0,29.99,West,279,4.0,12.0,54,0.00,,,0.00,,2013-05-19 21:02:00,
2013-05-19 17:11:00,87.0,68.0,29.99,West,279,4.0,12.0,54,0.00,,,0.00,,2013-05-19 21:11:00,
2013-05-19 17:22:00,85.0,68.0,29.99,West,276,4.0,8.0,56,0.00,,,0.00,,2013-05-19 21:22:00,
2013-05-19 17:32:00,86.0,68.0,29.99,WNW,283,5.0,10.0,56,0.00,,,0.00,,2013-05-19 21:32:00,
2013-05-19 17:43:00,86.0,68.0,29.99,WNW,283,5.0,10.0,56,0.00,,,0.00,,2013-05-19 21:43:00,
2013-05-19 17:53:00,86.0,67.0,29.98,WNW,283,5.0,11.0,54,0.00,,,0.00,,2013-05-19 21:53:00,
2013-05-19 18:03:00,84.0,67.0,29.99,NW,306,4.0,10.0,56,0.00,,,0.00,,2013-05-19 22:03:00,
2013-05-19 18:12:00,84.0,67.0,29.99,NW,306,4.0,10.0,56,0.00,,,0.00,,2013-05-19 22:12:00,
2013-05-19 18:23:00,84.0,67.0,29.99,West,281,4.0,11.0,57,0.00,,,0.00,,2013-05-19 22:23:00,
2013-05-19 18:33:00,82.0,66.0,30.00,NW,305,4.0,13.0,59,0.00,,,0.00,,2013-05-19 22:33:00,
2013-05-19 18:42:00,82.0,66.0,30.00,NW,305,4.0,13.0,59,0.00,,,0.00,,2013-05-19 22:42:00,
2013-05-19 18:53:00,82.0,67.0,30.00,WNW,290,2.0,9.0,61,0.00,,,0.00,,2013-05-19 22:53:00,
2013-05-19 19:02:00,82.0,67.0,30.00,WNW,294,3.0,8.0,60,0.00,,,0.00,,2013-05-19 23:02:00,
2013-05-19 19:12:00,82.0,67.0,30.00,WNW,294,3.0,8.0,60,0.00,,,0.00,,2013-05-19 23:12:00,
2013-05-19 19:22:00,82.0,69.0,30.00,WNW,296,3.0,7.0,64,0.00,,,0.00,,2013-05-19 23:22:00,
2013-05-19 19:32:00,80.0,68.0,30.00,WNW,298,2.0,7.0,67,0.00,,,0.00,,2013-05-19 23:32:00,
2013-05-19 19:42:00,80.0,68.0,30.00,WNW,298,2.0,7.0,67,0.00,,,0.00,,2013-05-19 23:42:00,
2013-05-19 19:52:00,79.0,67.0,30.00,West,273,2.0,6.0,67,0.00,,,0.00,,2013-05-19 23:52:00,
2013-05-19 20:02:00,78.0,67.0,30.00,WNW,286,3.0,6.0,70,0.00,,,0.00,,2013-05-20 00:02:00,
2013-05-19 20:12:00,78.0,67.0,30.00,WNW,286,3.0,6.0,70,0.00,,,0.00,,2013-05-20 00:12:00,
2013-05-19 20:22:00,78.0,68.0,30.00,West,273,1.0,6.0,71,0.00,,,0.00,,2013-05-20 00:22:00,
2013-05-19 20:32:00,77.0,67.0,30.01,NW,315,0.0,4.0,72,0.00,,,0.00,,2013-05-20 00:32:00,
2013-05-19 20:42:00,77.0,67.0,30.01,NW,315,0.0,4.0,72,0.00,,,0.00,,2013-05-20 00:42:00,
2013-05-19 20:52:00,77.0,68.0,30.01,WNW,298,0.0,2.0,73,0.00,,,0.00,,2013-05-20 00:52:00,
2013-05-19 21:01:00,76.0,67.0,30.02,WNW,284,0.0,2.0,74,0.00,,,0.00,,2013-05-20 01:01:00,
2013-05-19 21:11:00,76.0,67.0,30.02,WNW,284,0.0,2.0,74,0.00,,,0.00,,2013-05-20 01:11:00,
2013-05-19 21:22:00,76.0,68.0,30.02,WNW,292,0.0,2.0,76,0.00,,,0.00,,2013-05-20 01:22:00,
2013-05-19 21:32:00,75.0,67.0,30.03,North,5,0.0,1.0,77,0.00,,,0.00,,2013-05-20 01:32:00,
2013-05-19 21:42:00,75.0,67.0,30.03,North,5,0.0,1.0,77,0.00,,,0.00,,2013-05-20 01:42:00,
2013-05-19 21:52:00,75.0,67.0,30.04,ENE,64,0.0,1.0,77,0.00,,,0.00,,2013-05-20 01:52:00,
2013-05-19 22:02:00,75.0,67.0,30.04,NE,53,0.0,2.0,77,0.00,,,0.00,,2013-05-20 02:02:00,
2013-05-19 22:12:00,75.0,67.0,30.04,NE,53,0.0,2.0,77,0.00,,,0.00,,2013-05-20 02:12:00,
2013-05-19 22:21:00,75.0,67.0,30.04,NE,53,0.0,1.0,77,0.00,,,0.00,,2013-05-20 02:21:00,
2013-05-19 22:32:00,75.0,68.0,30.05,NE,53,0.0,0.0,80,0.00,,,0.00,,2013-05-20 02:32:00,
2013-05-19 22:42:00,75.0,68.0,30.05,NE,53,0.0,0.0,80,0.00,,,0.00,,2013-05-20 02:42:00,
2013-05-19 22:52:00,74.0,67.0,30.06,NE,53,0.0,0.0,78,0.00,,,0.00,,2013-05-20 02:52:00,
2013-05-19 23:02:00,75.0,68.0,30.06,NE,41,0.0,2.0,79,0.00,,,0.00,,2013-05-20 03:02:00,
2013-05-19 23:11:00,75.0,68.0,30.06,NE,41,0.0,2.0,79,0.00,,,0.00,,2013-05-20 03:11:00,
2013-05-19 23:21:00,75.0,68.0,30.06,NE,42,0.0,0.0,78,0.00,,,0.00,,2013-05-20 03:21:00,
2013-05-19 23:33:00,75.0,67.0,30.06,NE,54,0.0,2.0,77,0.00,,,0.00,,2013-05-20 03:33:00,
2013-05-19 23:43:00,75.0,67.0,30.06,NE,54,0.0,2.0,77,0.00,,,0.00,,2013-05-20 03:43:00,
2013-05-19 23:53:00,74.0,67.0,30.06,NE,54,0.0,1.0,79,0.00,,,0.00,,2013-05-20 03:53:00,